Location: Washington
(38.8950°N, 77.0370°W)
Time: 00:22:10
(UTC-04:00)

Tiangong 1 - Visible Passes

Search period start: 01 May 2017 00:00
Search period end: 11 May 2017 00:00
Orbit: 329 x 351 km, 42.8° (Epoch: 29 April)

Date Brightness Start Highest point End Pass type
(mag) Time Alt. Az. Time Alt. Az. Time Alt. Az.
01 May 2.8 21:08:11 10° SSW 21:09:16 15° S 21:09:16 15° S visible
02 May 1.2 21:29:00 10° SW 21:31:25 43° S 21:31:25 43° S visible
03 May 1.1 21:50:32 10° WSW 21:53:05 64° WNW 21:53:05 64° WNW visible
04 May 1.0 20:36:30 10° SW 20:39:17 49° SSE 20:42:03 10° ENE visible
04 May 2.5 22:12:20 10° W 22:14:21 33° NW 22:14:21 33° NW visible
05 May 1.0 20:57:57 10° WSW 21:00:48 70° NNW 21:03:38 10° ENE visible
05 May 3.6 22:34:07 10° WNW 22:35:17 20° NW 22:35:17 20° NW visible
06 May 2.0 21:19:40 10° W 21:22:23 41° N 21:24:40 13° ENE visible
06 May 4.3 22:55:43 10° WNW 22:55:57 12° WNW 22:55:57 12° WNW visible
07 May 2.3 21:41:19 10° WNW 21:43:59 34° N 21:45:10 23° NE visible
08 May 1.9 22:02:48 10° WNW 22:05:30 40° N 22:05:30 40° N visible
09 May 2.2 20:48:19 10° WNW 20:51:00 34° N 20:53:38 10° ENE visible
09 May 2.7 22:24:07 10° WNW 22:25:44 30° WNW 22:25:44 30° WNW visible
10 May 1.8 21:09:40 10° WNW 21:12:25 41° N 21:14:38 14° ENE visible
10 May 3.9 22:45:24 10° WNW 22:45:53 14° W 22:45:53 14° W visible
